Regional Weather Roundup
Issued by NWS

Home | Current Version | Previous Version | Text Only | Print | Product List | Glossary On
Versions: 1 2 3 4 5 6 7 8 9 10 11 12 13 14 15 16 17 18 19 20 21 22 23 24 25 26 27 28 29 30 31 32 33 34 35 36 37 38 39 40 41 42 43 44 45 46 47 48 49 50
000
ASUS46 KPQR 251610
RWROR

OREGON REGIONAL WEATHER ROUNDUP
NATIONAL WEATHER SERVICE PORTLAND OR
900 AM PDT FRI MAY 25 2018

NOTE: "FAIR" INDICATES FEW OR NO CLOUDS BELOW 12,000 FEET WITH
NO SIGNIFICANT WEATHER AND/OR OBSTRUCTIONS TO VISIBILITY.

ORZ001>013-251700-
NORTHWEST OREGON


CITY           SKY/WX    TMP DP  RH WIND       PRES   REMARKS
ASTORIA        MOSUNNY   57  46  66 N10       30.08F
TILLAMOOK      PTSUNNY   55  45  67 NW12      30.08S
NEWPORT        CLOUDY    54  46  76 N12G17    30.10S
PORTLAND       CLOUDY    56  45  66 N9G18     30.04S
VANCOUVER WA   CLOUDY    55  46  71 NW9G18    30.04S
SCAPPOOSE      PTSUNNY   56  46  69 VRB3      30.03F
HILLSBORO      PTSUNNY   56  46  69 NW9       30.04S
AURORA         CLOUDY    58  45  62 N7        30.05R
MCMINNVILLE    CLOUDY    58  45  62 N7        30.03S
SALEM          CLOUDY    59  48  67 N12       30.02S
CORVALLIS      CLOUDY    56  49  77 NW10G17   30.04R
EUGENE         CLOUDY    56  53  90 N5        30.03R
$$

ORZ021-028-251700-
SOUTHWEST OREGON


CITY           SKY/WX    TMP DP  RH WIND       PRES   REMARKS
NORTH BEND     CLOUDY    56  50  80 N15       30.09S
BROOKINGS      LGT RAIN  53  52  96 S6        30.05R
ROSEBURG       CLOUDY    57  54  89 N5        30.02S
SEXTON SUMMIT  LGT RAIN  49  49 100 N9        30.00S VSB 1/4
GRANTS PASS    PTSUNNY   59  55  88 VRB7      30.00R
MEDFORD        CLOUDY    62  58  86 NW7       29.95R
$$

ORZ014>016-041-251700-
COLUMBIA GORGE


CITY           SKY/WX    TMP DP  RH WIND       PRES   REMARKS
TROUTDALE      CLOUDY    56  48  74 VRB6      30.03S
HOOD RIVER     CLOUDY    63  52  67 W8G17     29.94F
THE DALLES     CLOUDY    67  53  61 NW8       29.91S
$$

ORZ029>031-041-044-049-050-061>064-502-503-505>511-251700-
EASTERN OREGON


CITY           SKY/WX    TMP DP  RH WIND       PRES   REMARKS
MADRAS         CLOUDY    63  50  63 NW9       29.97F
REDMOND        CLOUDY    60  53  77 NW6       29.95F
BEND           DRIZZLE   59  54  82 MISG      29.97S
PRINEVILLE     CLOUDY    59  54  82 CALM      29.97R
KLAMATH FALLS  PTSUNNY   57  50  77 CALM      29.98F
LAKEVIEW       PTSUNNY   56  48  74 N9        29.97F
HERMISTON      CLOUDY    69  54  58 W8        29.90S
PENDLETON      CLOUDY    66  51  58 NW5       29.92F
JOHN DAY       CLOUDY    60  56  87 SE3       29.97F
MEACHAM        CLOUDY    60  51  72 CALM      29.99S
LA GRANDE      CLOUDY    61  55  81 S6        30.00R
BAKER CITY     CLOUDY    57  53  86 N6        30.00S
BURNS          PTSUNNY   58  52  80 SE5       29.98S
ROME             N/A     65  53  65 N5        29.94F
ONTARIO        SUNNY     70  58  65 CALM      29.92S
$$



USA.gov is the U.S. government's official web portal to all federal, state and local government web resources and services.